Time,TemperatureF,DewpointF,PressureIn,WindDirection,WindDirectionDegrees,WindSpeedMPH,WindSpeedGustMPH,Humidity,HourlyPrecipIn,Conditions,Clouds,dailyrainin,SolarRadiationWatts/m^2,SoftwareType,DateUTC
2013-07-12 00:01:00,68.0,68.0,-100.00,NW,313,1.0,2.0,99,0.00,,,0.02,0.000000,,2013-07-12 04:01:00,
2013-07-12 00:11:00,68.0,68.0,-100.00,NW,313,1.0,2.0,99,0.00,,,0.02,0.000000,,2013-07-12 04:11:00,
2013-07-12 00:22:00,68.0,68.0,-100.00,NW,313,1.0,2.0,99,0.00,,,0.02,0.000000,,2013-07-12 04:22:00,
2013-07-12 00:53:00,68.0,66.0,-100.00,NW,315,3.0,7.0,94,0.00,,,0.02,0.000000,,2013-07-12 04:53:00,
2013-07-12 01:02:00,68.0,66.0,-100.00,NW,315,3.0,7.0,94,0.00,,,0.02,0.000000,,2013-07-12 05:02:00,
2013-07-12 01:12:00,68.0,66.0,-100.00,NW,315,3.0,7.0,94,0.00,,,0.02,0.000000,,2013-07-12 05:12:00,
2013-07-12 01:22:00,68.0,66.0,-100.00,NW,315,3.0,7.0,94,0.00,,,0.02,0.000000,,2013-07-12 05:22:00,
2013-07-12 01:53:00,69.0,61.0,-100.00,NNW,327,3.0,11.0,77,0.00,,,0.02,0.000000,,2013-07-12 05:53:00,
2013-07-12 02:01:00,69.0,61.0,-100.00,NNW,327,3.0,11.0,77,0.00,,,0.02,0.000000,,2013-07-12 06:01:00,
2013-07-12 02:11:00,69.0,61.0,-100.00,NNW,327,3.0,11.0,77,0.00,,,0.02,0.000000,,2013-07-12 06:11:00,
2013-07-12 02:22:00,69.0,61.0,-100.00,NNW,327,3.0,11.0,77,0.00,,,0.02,0.000000,,2013-07-12 06:22:00,
2013-07-12 02:52:00,68.0,61.0,-100.00,NW,309,3.0,10.0,77,0.00,,,0.02,0.000000,,2013-07-12 06:52:00,
2013-07-12 03:02:00,68.0,61.0,-100.00,NW,309,3.0,10.0,77,0.00,,,0.02,0.000000,,2013-07-12 07:02:00,
2013-07-12 03:12:00,68.0,61.0,-100.00,NW,309,3.0,10.0,77,0.00,,,0.02,0.000000,,2013-07-12 07:12:00,
2013-07-12 03:22:00,68.0,61.0,-100.00,NW,309,3.0,10.0,77,0.00,,,0.02,0.000000,,2013-07-12 07:22:00,
2013-07-12 03:52:00,67.0,60.0,-100.00,NNW,328,3.0,7.0,78,0.00,,,0.02,0.000000,,2013-07-12 07:52:00,
2013-07-12 04:02:00,67.0,60.0,-100.00,NNW,328,3.0,7.0,78,0.00,,,0.02,0.000000,,2013-07-12 08:02:00,
2013-07-12 04:11:00,67.0,60.0,-100.00,NNW,328,3.0,7.0,78,0.00,,,0.02,0.000000,,2013-07-12 08:11:00,
2013-07-12 04:22:00,67.0,60.0,-100.00,NNW,328,3.0,7.0,78,0.00,,,0.02,0.000000,,2013-07-12 08:22:00,
2013-07-12 04:53:00,67.0,58.0,-100.00,NNW,331,4.0,10.0,74,0.00,,,0.02,0.000000,,2013-07-12 08:53:00,
2013-07-12 05:02:00,67.0,58.0,-100.00,NNW,331,4.0,10.0,74,0.00,,,0.02,0.000000,,2013-07-12 09:02:00,
2013-07-12 05:13:00,67.0,58.0,-100.00,NNW,331,4.0,10.0,74,0.00,,,0.02,0.000000,,2013-07-12 09:13:00,
2013-07-12 05:22:00,67.0,58.0,-100.00,NNW,331,4.0,10.0,74,0.00,,,0.02,0.000000,,2013-07-12 09:22:00,
2013-07-12 05:52:00,67.0,57.0,-100.00,NNE,15,4.0,10.0,70,0.00,,,0.02,2.000000,,2013-07-12 09:52:00,
2013-07-12 06:01:00,67.0,57.0,-100.00,NNE,15,4.0,10.0,70,0.00,,,0.02,2.000000,,2013-07-12 10:01:00,
2013-07-12 06:11:00,67.0,57.0,-100.00,NNE,15,4.0,10.0,70,0.00,,,0.02,2.000000,,2013-07-12 10:11:00,
2013-07-12 06:22:00,67.0,57.0,-100.00,NNE,15,4.0,10.0,70,0.00,,,0.02,2.000000,,2013-07-12 10:22:00,
2013-07-12 06:52:00,67.0,57.0,-100.00,NNW,346,4.0,11.0,71,0.00,,,0.02,32.000000,,2013-07-12 10:52:00,
2013-07-12 07:02:00,67.0,57.0,-100.00,NNW,346,4.0,11.0,71,0.00,,,0.02,32.000000,,2013-07-12 11:02:00,
2013-07-12 07:12:00,67.0,57.0,-100.00,NNW,346,4.0,11.0,71,0.00,,,0.02,32.000000,,2013-07-12 11:12:00,
2013-07-12 07:22:00,67.0,57.0,-100.00,NNW,346,4.0,11.0,71,0.00,,,0.02,32.000000,,2013-07-12 11:22:00,
2013-07-12 07:53:00,69.0,58.0,-100.00,NNE,28,4.0,12.0,69,0.00,,,0.02,140.000000,,2013-07-12 11:53:00,
2013-07-12 08:02:00,69.0,58.0,-100.00,NNE,28,4.0,12.0,69,0.00,,,0.02,140.000000,,2013-07-12 12:02:00,
2013-07-12 08:11:00,69.0,58.0,-100.00,NNE,28,4.0,12.0,69,0.00,,,0.02,140.000000,,2013-07-12 12:11:00,
2013-07-12 08:22:00,69.0,58.0,-100.00,NNE,28,4.0,12.0,69,0.00,,,0.02,140.000000,,2013-07-12 12:22:00,
2013-07-12 08:53:00,71.0,59.0,-100.00,NNE,18,4.0,12.0,65,0.00,,,0.02,341.000000,,2013-07-12 12:53:00,
2013-07-12 09:01:00,71.0,59.0,-100.00,NNE,18,4.0,12.0,65,0.00,,,0.02,341.000000,,2013-07-12 13:01:00,
2013-07-12 09:12:00,71.0,59.0,-100.00,NNE,18,4.0,12.0,65,0.00,,,0.02,341.000000,,2013-07-12 13:12:00,
2013-07-12 09:22:00,71.0,59.0,-100.00,NNE,18,4.0,12.0,65,0.00,,,0.02,341.000000,,2013-07-12 13:22:00,
2013-07-12 09:53:00,75.0,59.0,-100.00,NNE,30,4.0,10.0,58,0.00,,,0.02,446.000000,,2013-07-12 13:53:00,
2013-07-12 10:53:00,78.0,58.0,-100.00,ENE,74,4.0,10.0,51,0.00,,,0.01,732.000000,,2013-07-12 14:53:00,
2013-07-12 11:11:00,78.0,58.0,-100.00,ENE,74,4.0,10.0,51,0.00,,,0.01,732.000000,,2013-07-12 15:11:00,
2013-07-12 11:22:00,78.0,58.0,-100.00,ENE,74,4.0,10.0,51,0.00,,,0.01,732.000000,,2013-07-12 15:22:00,
2013-07-12 12:59:00,77.0,62.0,-100.00,East,97,3.0,8.0,60,-99.99,,,0.00,880.000000,,2013-07-12 16:59:00,
2013-07-12 13:07:00,77.0,62.0,-100.00,East,97,3.0,8.0,60,-99.99,,,0.00,880.000000,,2013-07-12 17:07:00,
2013-07-12 13:15:00,77.0,62.0,-100.00,East,97,3.0,8.0,60,-99.99,,,0.00,880.000000,,2013-07-12 17:15:00,
2013-07-12 13:24:00,77.0,62.0,-100.00,East,97,3.0,8.0,60,-99.99,,,0.00,880.000000,,2013-07-12 17:24:00,
2013-07-12 13:25:00,76.0,62.0,-100.00,ESE,114,3.0,9.0,61,0.00,,,0.00,908.000000,,2013-07-12 17:25:00,
2013-07-12 13:57:00,76.0,62.0,-100.00,ESE,114,3.0,9.0,61,0.00,,,0.00,908.000000,,2013-07-12 17:57:00,
2013-07-12 14:08:00,76.0,62.0,-100.00,ESE,114,3.0,9.0,61,0.00,,,0.00,908.000000,,2013-07-12 18:08:00,
2013-07-12 14:25:00,74.0,59.0,-100.00,SE,140,4.0,10.0,60,0.00,,,0.00,874.000000,,2013-07-12 18:25:00,
2013-07-12 14:59:00,74.0,59.0,-100.00,SE,140,4.0,10.0,60,0.00,,,0.00,874.000000,,2013-07-12 18:59:00,
2013-07-12 15:05:00,74.0,59.0,-100.00,SE,140,4.0,10.0,60,0.00,,,0.00,874.000000,,2013-07-12 19:05:00,
2013-07-12 15:15:00,74.0,59.0,-100.00,SE,140,4.0,10.0,60,0.00,,,0.00,874.000000,,2013-07-12 19:15:00,
2013-07-12 15:59:00,75.0,59.0,-100.00,SE,125,5.0,8.0,57,0.00,,,0.00,731.000000,,2013-07-12 19:59:00,
2013-07-12 16:15:00,75.0,59.0,-100.00,SE,125,5.0,8.0,57,0.00,,,0.00,731.000000,,2013-07-12 20:15:00,
2013-07-12 16:24:00,75.0,59.0,-100.00,SE,125,5.0,8.0,57,0.00,,,0.00,731.000000,,2013-07-12 20:24:00,
2013-07-12 16:25:00,75.0,58.0,-100.00,ESE,116,4.0,8.0,55,0.00,,,0.00,665.000000,,2013-07-12 20:25:00,
2013-07-12 17:04:00,75.0,58.0,-100.00,ESE,116,4.0,8.0,55,0.00,,,0.00,665.000000,,2013-07-12 21:04:00,
2013-07-12 17:17:00,75.0,58.0,-100.00,ESE,116,4.0,8.0,55,0.00,,,0.00,665.000000,,2013-07-12 21:17:00,
2013-07-12 17:25:00,74.0,59.0,-100.00,SE,128,4.0,8.0,59,0.00,,,0.00,507.000000,,2013-07-12 21:25:00,
2013-07-12 18:04:00,74.0,59.0,-100.00,SE,128,4.0,8.0,59,0.00,,,0.00,507.000000,,2013-07-12 22:04:00,
2013-07-12 18:17:00,74.0,59.0,-100.00,SE,128,4.0,8.0,59,0.00,,,0.00,507.000000,,2013-07-12 22:17:00,
2013-07-12 18:56:00,73.0,56.0,-100.00,SE,132,3.0,7.0,56,0.00,,,0.00,238.000000,,2013-07-12 22:56:00,
2013-07-12 19:06:00,73.0,56.0,-100.00,SE,132,3.0,7.0,56,0.00,,,0.00,238.000000,,2013-07-12 23:06:00,
2013-07-12 19:14:00,73.0,56.0,-100.00,SE,132,3.0,7.0,56,0.00,,,0.00,238.000000,,2013-07-12 23:14:00,
2013-07-12 19:25:00,70.0,58.0,-100.00,SSE,167,3.0,5.0,65,0.00,,,0.00,151.000000,,2013-07-12 23:25:00,
2013-07-12 19:58:00,70.0,58.0,-100.00,SSE,167,3.0,5.0,65,0.00,,,0.00,151.000000,,2013-07-12 23:58:00,
2013-07-12 20:08:00,70.0,58.0,-100.00,SSE,167,3.0,5.0,65,0.00,,,0.00,151.000000,,2013-07-13 00:08:00,
2013-07-12 20:56:00,66.0,59.0,-100.00,WSW,254,1.0,5.0,78,0.00,,,0.00,24.000000,,2013-07-13 00:56:00,
2013-07-12 21:05:00,66.0,59.0,-100.00,WSW,254,1.0,5.0,78,0.00,,,0.00,24.000000,,2013-07-13 01:05:00,
2013-07-12 21:14:00,66.0,59.0,-100.00,WSW,254,1.0,5.0,78,0.00,,,0.00,24.000000,,2013-07-13 01:14:00,
2013-07-12 21:25:00,64.0,60.0,-100.00,West,274,0.0,3.0,86,0.00,,,0.00,1.000000,,2013-07-13 01:25:00,
2013-07-12 21:58:00,64.0,60.0,-100.00,West,274,0.0,3.0,86,0.00,,,0.00,1.000000,,2013-07-13 01:58:00,
2013-07-12 22:08:00,64.0,60.0,-100.00,West,274,0.0,3.0,86,0.00,,,0.00,1.000000,,2013-07-13 02:08:00,
2013-07-12 22:15:00,64.0,60.0,-100.00,West,274,0.0,3.0,86,0.00,,,0.00,1.000000,,2013-07-13 02:15:00,
2013-07-12 22:57:00,63.0,60.0,-100.00,NNW,340,1.0,2.0,89,0.00,,,0.00,0.000000,,2013-07-13 02:57:00,
2013-07-12 23:06:00,63.0,60.0,-100.00,NNW,340,1.0,2.0,89,0.00,,,0.00,0.000000,,2013-07-13 03:06:00,
2013-07-12 23:14:00,63.0,60.0,-100.00,NNW,340,1.0,2.0,89,0.00,,,0.00,0.000000,,2013-07-13 03:14:00,
2013-07-12 23:58:00,63.0,60.0,-100.00,WNW,302,2.0,3.0,91,0.00,,,0.00,0.000000,,2013-07-13 03:58:00,